Time,TemperatureF,DewpointF,PressureIn,WindDirection,WindDirectionDegrees,WindSpeedMPH,WindSpeedGustMPH,Humidity,HourlyPrecipIn,Conditions,Clouds,dailyrainin,SoftwareType,DateUTC
2013-06-30 00:07:00,85.3,58.2,29.75,East,90,4.2,-999.0,40,-99.99,,,0.00,Acu-Link.com,2013-06-30 05:07:00,
2013-06-30 00:22:00,84.6,58.3,29.76,ESE,112,1.7,-999.0,41,-99.99,,,0.00,Acu-Link.com,2013-06-30 05:22:00,
2013-06-30 00:38:00,84.0,58.4,29.76,SE,135,3.7,-999.0,42,-99.99,,,0.00,Acu-Link.com,2013-06-30 05:38:00,
2013-06-30 00:53:00,82.9,58.1,29.77,SSE,157,2.2,-999.0,43,-99.99,,,0.00,Acu-Link.com,2013-06-30 05:53:00,
2013-06-30 01:09:00,82.2,58.1,29.77,SE,135,3.2,-999.0,44,-99.99,,,0.00,Acu-Link.com,2013-06-30 06:09:00,
2013-06-30 01:24:00,81.5,58.1,29.77,East,90,2.7,-999.0,45,-99.99,,,0.00,Acu-Link.com,2013-06-30 06:24:00,
2013-06-30 01:39:00,81.1,57.7,29.75,ENE,67,3.2,-999.0,45,-99.99,,,0.00,Acu-Link.com,2013-06-30 06:39:00,
2013-06-30 01:54:00,81.0,58.2,29.76,ENE,67,3.7,-999.0,46,-99.99,,,0.00,Acu-Link.com,2013-06-30 06:54:00,
2013-06-30 02:09:00,80.8,58.1,29.76,ENE,67,3.2,-999.0,46,-99.99,,,0.00,Acu-Link.com,2013-06-30 07:09:00,
2013-06-30 02:25:00,81.0,58.2,29.76,ESE,112,4.7,-999.0,46,-99.99,,,0.00,Acu-Link.com,2013-06-30 07:25:00,
2013-06-30 02:40:00,81.0,58.2,29.75,East,90,3.7,-999.0,46,-99.99,,,0.00,Acu-Link.com,2013-06-30 07:40:00,
2013-06-30 02:55:00,80.8,58.1,29.75,ESE,112,5.8,-999.0,46,-99.99,,,0.00,Acu-Link.com,2013-06-30 07:55:00,
2013-06-30 03:11:00,80.6,57.9,29.75,ESE,112,4.2,-999.0,46,-99.99,,,0.00,Acu-Link.com,2013-06-30 08:11:00,
2013-06-30 03:26:00,80.6,57.9,29.75,East,90,2.7,-999.0,46,-99.99,,,0.00,Acu-Link.com,2013-06-30 08:26:00,
2013-06-30 03:41:00,80.2,57.5,29.75,SE,135,1.7,-999.0,46,-99.99,,,0.00,Acu-Link.com,2013-06-30 08:41:00,
2013-06-30 03:57:00,78.8,58.0,29.74,NE,45,0.0,-999.0,49,-99.99,,,0.00,Acu-Link.com,2013-06-30 08:57:00,
2013-06-30 04:12:00,78.6,57.8,29.73,East,90,1.7,-999.0,49,-99.99,,,0.00,Acu-Link.com,2013-06-30 09:12:00,
2013-06-30 04:27:00,78.1,57.9,29.75,SSE,157,0.0,-999.0,50,-99.99,,,0.00,Acu-Link.com,2013-06-30 09:27:00,
2013-06-30 04:42:00,77.0,58.0,29.74,SE,135,0.0,-999.0,52,-99.99,,,0.00,Acu-Link.com,2013-06-30 09:42:00,
2013-06-30 04:57:00,76.8,58.4,29.73,ENE,67,0.0,-999.0,53,-99.99,,,0.00,Acu-Link.com,2013-06-30 09:57:00,
2013-06-30 05:13:00,77.5,58.5,29.76,West,270,4.7,-999.0,52,-99.99,,,0.00,Acu-Link.com,2013-06-30 10:13:00,
2013-06-30 05:28:00,78.8,61.2,29.82,West,270,9.4,-999.0,55,-99.99,,,0.00,Acu-Link.com,2013-06-30 10:28:00,
2013-06-30 05:43:00,73.9,63.1,29.85,WSW,247,9.4,-999.0,69,-99.99,,,0.00,Acu-Link.com,2013-06-30 10:43:00,
2013-06-30 05:58:00,72.9,64.1,29.86,West,270,5.8,-999.0,74,-99.99,,,0.00,Acu-Link.com,2013-06-30 10:58:00,
2013-06-30 06:13:00,72.9,64.9,29.87,SW,225,5.8,-999.0,76,-99.99,,,0.00,Acu-Link.com,2013-06-30 11:13:00,
2013-06-30 06:28:00,72.3,65.4,29.87,SW,225,6.8,-999.0,79,-99.99,,,0.00,Acu-Link.com,2013-06-30 11:28:00,
2013-06-30 06:44:00,72.1,65.2,29.86,SW,225,6.3,-999.0,79,-99.99,,,0.00,Acu-Link.com,2013-06-30 11:44:00,
2013-06-30 06:59:00,72.1,65.2,29.87,WSW,247,4.2,-999.0,79,-99.99,,,0.00,Acu-Link.com,2013-06-30 11:59:00,
2013-06-30 07:14:00,72.0,65.5,29.87,SW,225,2.7,-999.0,80,-99.99,,,0.00,Acu-Link.com,2013-06-30 12:14:00,
2013-06-30 07:30:00,72.0,65.5,29.86,NNW,337,1.7,-999.0,80,-99.99,,,0.00,Acu-Link.com,2013-06-30 12:30:00,
2013-06-30 07:45:00,72.5,65.2,29.85,SW,225,1.7,-999.0,78,-99.99,,,0.00,Acu-Link.com,2013-06-30 12:45:00,
2013-06-30 08:00:00,72.9,65.6,29.84,WSW,247,2.2,-999.0,78,-99.99,,,0.00,Acu-Link.com,2013-06-30 13:00:00,
2013-06-30 08:16:00,73.8,65.7,29.83,NE,45,0.0,-999.0,76,-99.99,,,0.00,Acu-Link.com,2013-06-30 13:16:00,
2013-06-30 08:31:00,75.4,65.7,29.82,SW,225,0.0,-999.0,72,-99.99,,,0.00,Acu-Link.com,2013-06-30 13:31:00,
2013-06-30 08:46:00,77.0,65.6,29.82,NE,45,0.0,-999.0,68,-99.99,,,0.00,Acu-Link.com,2013-06-30 13:46:00,
2013-06-30 09:01:00,79.9,66.2,29.81,SE,135,0.0,-999.0,63,-99.99,,,0.00,Acu-Link.com,2013-06-30 14:01:00,
2013-06-30 09:17:00,81.3,65.6,29.82,ESE,112,3.7,-999.0,59,-99.99,,,0.00,Acu-Link.com,2013-06-30 14:17:00,
2013-06-30 09:33:00,84.4,65.9,29.82,ENE,67,5.3,-999.0,54,-99.99,,,0.00,Acu-Link.com,2013-06-30 14:33:00,
2013-06-30 09:48:00,84.6,65.6,29.83,NE,45,6.3,-999.0,53,-99.99,,,0.00,Acu-Link.com,2013-06-30 14:48:00,
2013-06-30 10:03:00,84.4,64.8,29.83,ESE,112,6.8,-999.0,52,-99.99,,,0.00,Acu-Link.com,2013-06-30 15:03:00,
2013-06-30 10:18:00,86.9,64.2,29.82,NE,45,6.3,-999.0,47,-99.99,,,0.00,Acu-Link.com,2013-06-30 15:18:00,
2013-06-30 10:34:00,87.6,63.6,29.82,ENE,67,7.8,-999.0,45,-99.99,,,0.00,Acu-Link.com,2013-06-30 15:34:00,
2013-06-30 10:49:00,87.3,62.7,29.82,SE,135,5.3,-999.0,44,-99.99,,,0.00,Acu-Link.com,2013-06-30 15:49:00,
2013-06-30 11:04:00,88.3,62.9,29.83,NNE,22,3.7,-999.0,43,-99.99,,,0.00,Acu-Link.com,2013-06-30 16:04:00,
2013-06-30 11:19:00,88.5,62.4,29.83,NNW,337,2.7,-999.0,42,-99.99,,,0.00,Acu-Link.com,2013-06-30 16:19:00,
2013-06-30 11:34:00,88.0,62.0,29.83,ESE,112,3.2,-999.0,42,-99.99,,,0.00,Acu-Link.com,2013-06-30 16:34:00,
2013-06-30 11:50:00,89.1,62.3,29.83,ESE,112,2.7,-999.0,41,-99.99,,,0.00,Acu-Link.com,2013-06-30 16:50:00,
2013-06-30 12:05:00,91.4,62.2,29.83,NE,45,2.2,-999.0,38,-99.99,,,0.00,Acu-Link.com,2013-06-30 17:05:00,
2013-06-30 12:20:00,92.1,62.8,29.83,WNW,292,4.7,-999.0,38,-99.99,,,0.00,Acu-Link.com,2013-06-30 17:20:00,
2013-06-30 12:35:00,91.2,62.0,29.83,NNE,22,7.3,-999.0,38,-99.99,,,0.00,Acu-Link.com,2013-06-30 17:35:00,
2013-06-30 12:51:00,92.5,62.4,29.82,SE,135,4.2,-999.0,37,-99.99,,,0.00,Acu-Link.com,2013-06-30 17:51:00,
2013-06-30 13:06:00,93.9,62.0,29.83,West,270,3.2,-999.0,35,-99.99,,,0.00,Acu-Link.com,2013-06-30 18:06:00,
2013-06-30 13:22:00,93.7,61.9,29.82,West,270,1.7,-999.0,35,-99.99,,,0.00,Acu-Link.com,2013-06-30 18:22:00,
2013-06-30 13:37:00,94.6,61.8,29.80,North,0,4.2,-999.0,34,-99.99,,,0.00,Acu-Link.com,2013-06-30 18:37:00,
2013-06-30 13:52:00,93.0,60.4,29.81,SW,225,2.2,-999.0,34,-99.99,,,0.00,Acu-Link.com,2013-06-30 18:52:00,
2013-06-30 14:07:00,93.9,61.2,29.81,NW,315,2.7,-999.0,34,-99.99,,,0.00,Acu-Link.com,2013-06-30 19:07:00,
2013-06-30 14:22:00,96.6,60.9,29.80,NNE,22,7.8,-999.0,31,-99.99,,,0.00,Acu-Link.com,2013-06-30 19:22:00,
2013-06-30 14:37:00,93.2,58.9,29.80,NNW,337,2.7,-999.0,32,-99.99,,,0.00,Acu-Link.com,2013-06-30 19:37:00,
2013-06-30 14:53:00,95.7,60.2,29.78,NNW,337,1.1,-999.0,31,-99.99,,,0.00,Acu-Link.com,2013-06-30 19:53:00,
2013-06-30 15:08:00,97.2,59.6,29.78,NE,45,4.2,-999.0,29,-99.99,,,0.00,Acu-Link.com,2013-06-30 20:08:00,
2013-06-30 15:24:00,97.9,60.2,29.77,NE,45,5.8,-999.0,29,-99.99,,,0.00,Acu-Link.com,2013-06-30 20:24:00,
2013-06-30 15:39:00,97.2,59.6,29.78,NNE,22,4.7,-999.0,29,-99.99,,,0.00,Acu-Link.com,2013-06-30 20:39:00,
2013-06-30 15:54:00,96.4,58.9,29.77,NW,315,4.7,-999.0,29,-99.99,,,0.00,Acu-Link.com,2013-06-30 20:54:00,
2013-06-30 16:09:00,96.8,59.2,29.77,NE,45,1.7,-999.0,29,-99.99,,,0.00,Acu-Link.com,2013-06-30 21:09:00,
2013-06-30 16:25:00,96.6,59.1,29.76,SSE,157,2.7,-999.0,29,-99.99,,,0.00,Acu-Link.com,2013-06-30 21:25:00,
2013-06-30 16:40:00,97.3,59.7,29.75,SE,135,1.7,-999.0,29,-99.99,,,0.00,Acu-Link.com,2013-06-30 21:40:00,
2013-06-30 16:55:00,95.7,59.3,29.75,NNE,22,4.2,-999.0,30,-99.99,,,0.00,Acu-Link.com,2013-06-30 21:55:00,
2013-06-30 17:10:00,96.1,59.6,29.76,South,180,0.0,-999.0,30,-99.99,,,0.00,Acu-Link.com,2013-06-30 22:10:00,
2013-06-30 17:26:00,95.0,58.7,29.74,West,270,1.7,-999.0,30,-99.99,,,0.00,Acu-Link.com,2013-06-30 22:26:00,
2013-06-30 17:41:00,97.2,59.6,29.74,NE,45,3.7,-999.0,29,-99.99,,,0.00,Acu-Link.com,2013-06-30 22:41:00,
2013-06-30 17:56:00,96.1,58.6,29.73,NE,45,4.2,-999.0,29,-99.99,,,0.00,Acu-Link.com,2013-06-30 22:56:00,
2013-06-30 18:11:00,99.1,58.1,29.73,North,0,6.3,-999.0,26,-99.99,,,0.00,Acu-Link.com,2013-06-30 23:11:00,
2013-06-30 18:26:00,95.5,58.1,29.72,NNW,337,3.2,-999.0,29,-99.99,,,0.00,Acu-Link.com,2013-06-30 23:26:00,
2013-06-30 18:42:00,92.1,56.2,29.72,NNE,22,5.3,-999.0,30,-99.99,,,0.00,Acu-Link.com,2013-06-30 23:42:00,
2013-06-30 18:57:00,91.9,56.9,29.72,NE,45,4.7,-999.0,31,-99.99,,,0.00,Acu-Link.com,2013-06-30 23:57:00,
2013-06-30 19:12:00,92.7,57.6,29.72,NNW,337,5.8,-999.0,31,-99.99,,,0.00,Acu-Link.com,2013-07-01 00:12:00,
2013-06-30 19:27:00,91.2,57.2,29.72,NE,45,4.2,-999.0,32,-99.99,,,0.00,Acu-Link.com,2013-07-01 00:27:00,
2013-06-30 19:43:00,91.0,57.0,29.72,East,90,3.2,-999.0,32,-99.99,,,0.00,Acu-Link.com,2013-07-01 00:43:00,
2013-06-30 19:58:00,91.0,57.0,29.73,NE,45,3.7,-999.0,32,-99.99,,,0.00,Acu-Link.com,2013-07-01 00:58:00,
2013-06-30 20:14:00,89.6,56.6,29.74,North,0,4.7,-999.0,33,-99.99,,,0.00,Acu-Link.com,2013-07-01 01:14:00,
2013-06-30 20:29:00,88.5,56.5,29.75,NNE,22,0.0,-999.0,34,-99.99,,,0.00,Acu-Link.com,2013-07-01 01:29:00,
2013-06-30 20:44:00,87.3,56.3,29.75,NE,45,4.7,-999.0,35,-99.99,,,0.00,Acu-Link.com,2013-07-01 01:44:00,
2013-06-30 20:59:00,86.2,55.3,29.75,NE,45,2.7,-999.0,35,-99.99,,,0.00,Acu-Link.com,2013-07-01 01:59:00,
2013-06-30 21:14:00,85.8,55.7,29.76,NE,45,0.0,-999.0,36,-99.99,,,0.00,Acu-Link.com,2013-07-01 02:14:00,
2013-06-30 21:30:00,84.7,55.5,29.77,NNW,337,2.2,-999.0,37,-99.99,,,0.00,Acu-Link.com,2013-07-01 02:30:00,
2013-06-30 21:45:00,83.5,55.9,29.77,SW,225,0.0,-999.0,39,-99.99,,,0.00,Acu-Link.com,2013-07-01 02:45:00,
2013-06-30 22:00:00,82.4,55.6,29.78,WNW,292,0.0,-999.0,40,-99.99,,,0.00,Acu-Link.com,2013-07-01 03:00:00,
2013-06-30 22:16:00,82.4,55.6,29.79,WSW,247,0.0,-999.0,40,-99.99,,,0.00,Acu-Link.com,2013-07-01 03:16:00,
2013-06-30 22:31:00,82.0,56.0,29.80,NW,315,0.0,-999.0,41,-99.99,,,0.00,Acu-Link.com,2013-07-01 03:31:00,
2013-06-30 22:46:00,81.0,55.7,29.81,North,0,0.0,-999.0,42,-99.99,,,0.00,Acu-Link.com,2013-07-01 03:46:00,
2013-06-30 23:01:00,80.6,56.0,29.82,NE,45,2.7,-999.0,43,-99.99,,,0.00,Acu-Link.com,2013-07-01 04:01:00,
2013-06-30 23:17:00,80.6,55.4,29.82,North,0,4.2,-999.0,42,-99.99,,,0.00,Acu-Link.com,2013-07-01 04:17:00,
2013-06-30 23:32:00,80.2,54.3,29.83,East,90,5.3,-999.0,41,-99.99,,,0.00,Acu-Link.com,2013-07-01 04:32:00,
2013-06-30 23:47:00,80.2,54.3,29.83,NNE,22,3.2,-999.0,41,-99.99,,,0.00,Acu-Link.com,2013-07-01 04:47:00,